FDX221 RCTP-ZGGG

Flight info

Callsign FDX221
Flight time 1h 22m
Altitude 36000
Route CHALI1B CHALI T3 MKG A1 KADLO DCT OLDID R200 LAPUG/K0911S1095 R200 GUBLO W22 IDUMA IDUMA9
Aircraft MD11/H-SDE1E2E3FGHIJ2J3J4J5M1RWXY/LB1D1

Departure

Time 2026-05-06 18:22
Airport Taiwan Taoyuan International Airport (RCTP)

Arrival

Time 2026-05-06 19:45
Airport Guangzhou Baiyun International Airport (ZGGG)
Time Latitude Longitude Altitude Speed Heading
2026-05-06 18:11 25.09101 121.24421 108 ft 0 kts 139°
2026-05-06 18:14 25.09102 121.24420 108 ft 1 kts 139°
2026-05-06 18:14 25.09114 121.24408 108 ft 3 kts 140°
2026-05-06 18:15 25.09130 121.24394 105 ft 3 kts 140°
2026-05-06 18:15 25.09146 121.24380 106 ft 3 kts 139°
2026-05-06 18:15 25.09161 121.24365 107 ft 3 kts 133°
2026-05-06 18:15 25.09173 121.24349 106 ft 3 kts 118°
2026-05-06 18:16 25.09180 121.24334 107 ft 3 kts 85°
2026-05-06 18:16 25.09180 121.24325 108 ft 1 kts 49°
2026-05-06 18:16 25.09169 121.24312 106 ft 3 kts 49°
2026-05-06 18:16 25.09157 121.24296 107 ft 2 kts 49°
2026-05-06 18:17 25.09154 121.24293 107 ft 0 kts 49°
2026-05-06 18:19 25.09157 121.24296 107 ft 2 kts 49°
2026-05-06 18:19 25.09179 121.24324 108 ft 7 kts 49°
2026-05-06 18:20 25.09224 121.24382 107 ft 12 kts 49°
2026-05-06 18:20 25.09282 121.24443 108 ft 9 kts 26°
2026-05-06 18:20 25.09343 121.24428 108 ft 10 kts 327°
2026-05-06 18:20 25.09407 121.24368 108 ft 13 kts 318°
2026-05-06 18:21 25.09419 121.24313 108 ft 7 kts 249°
2026-05-06 18:21 25.09404 121.24291 108 ft 1 kts 230°
2026-05-06 18:21 25.09346 121.24215 109 ft 47 kts 230°
2026-05-06 18:21 25.08927 121.23680 107 ft 134 kts 229°
2026-05-06 18:22 25.08186 121.22742 358 ft 176 kts 229°
2026-05-06 18:22 25.07413 121.21757 1094 ft 185 kts 229°
2026-05-06 18:22 25.06548 121.20654 1952 ft 198 kts 229°
2026-05-06 18:22 25.05602 121.19459 2674 ft 214 kts 229°
2026-05-06 18:23 25.04640 121.18229 3645 ft 215 kts 229°
2026-05-06 18:23 25.03731 121.16943 4706 ft 211 kts 240°
2026-05-06 18:23 25.03255 121.15387 5484 ft 222 kts 262°
2026-05-06 18:23 25.03418 121.13609 5863 ft 252 kts 286°
2026-05-06 18:24 25.04220 121.11783 6451 ft 271 kts 297°
2026-05-06 18:24 25.05186 121.09982 7431 ft 274 kts 298°
2026-05-06 18:24 25.06162 121.08163 8445 ft 277 kts 297°
2026-05-06 18:24 25.07146 121.06291 9016 ft 283 kts 297°
2026-05-06 18:25 25.08110 121.04422 10089 ft 282 kts 297°
2026-05-06 18:25 25.09109 121.02458 10297 ft 313 kts 297°
2026-05-06 18:25 25.10214 121.00242 10429 ft 345 kts 296°
2026-05-06 18:25 25.11155 120.97762 11064 ft 353 kts 284°
2026-05-06 18:26 25.11486 120.95075 11904 ft 357 kts 267°
2026-05-06 18:26 25.10979 120.92393 12739 ft 362 kts 248°
2026-05-06 18:26 25.09655 120.90016 13522 ft 369 kts 231°
2026-05-06 18:26 25.07879 120.87938 14226 ft 375 kts 225°
2026-05-06 18:27 25.05965 120.85966 14945 ft 379 kts 224°
2026-05-06 18:27 25.04015 120.83991 15652 ft 383 kts 224°
2026-05-06 18:27 25.02062 120.81980 16348 ft 386 kts 224°
2026-05-06 18:27 25.00135 120.79955 17030 ft 390 kts 225°
2026-05-06 18:28 24.98176 120.77864 17697 ft 394 kts 225°
2026-05-06 18:28 24.96209 120.75744 18341 ft 398 kts 225°
2026-05-06 18:28 24.94228 120.73599 18916 ft 400 kts 225°
2026-05-06 18:28 24.92238 120.71438 19497 ft 403 kts 226°
2026-05-06 18:29 24.90239 120.69266 20061 ft 405 kts 226°
2026-05-06 18:29 24.88228 120.67082 20623 ft 407 kts 226°
2026-05-06 18:29 24.86205 120.64886 21207 ft 410 kts 226°
2026-05-06 18:29 24.84170 120.62678 21800 ft 412 kts 226°
2026-05-06 18:30 24.82547 120.60918 22255 ft 414 kts 226°
2026-05-06 18:30 24.80516 120.58716 22857 ft 417 kts 226°
2026-05-06 18:30 24.78442 120.56470 23445 ft 420 kts 226°
2026-05-06 18:30 24.76353 120.54208 23968 ft 423 kts 226°
2026-05-06 18:31 24.74205 120.51980 24424 ft 427 kts 222°
2026-05-06 18:31 24.71856 120.49942 24903 ft 432 kts 218°
2026-05-06 18:31 24.69404 120.48029 25390 ft 437 kts 217°
2026-05-06 18:31 24.66877 120.46137 25844 ft 442 kts 216°
2026-05-06 18:32 24.64318 120.44235 26315 ft 446 kts 216°
2026-05-06 18:32 24.61740 120.42310 26790 ft 450 kts 217°
2026-05-06 18:32 24.59143 120.40356 27258 ft 454 kts 217°
2026-05-06 18:32 24.56566 120.38406 27723 ft 458 kts 217°
2026-05-06 18:33 24.53934 120.36408 28188 ft 462 kts 217°
2026-05-06 18:33 24.51280 120.34391 28641 ft 466 kts 217°
2026-05-06 18:33 24.48603 120.32356 29095 ft 470 kts 217°
2026-05-06 18:33 24.45905 120.30301 29537 ft 474 kts 217°
2026-05-06 18:34 24.43194 120.28215 29946 ft 478 kts 218°
2026-05-06 18:34 24.40469 120.26102 30297 ft 481 kts 218°
2026-05-06 18:34 24.37729 120.23972 30645 ft 484 kts 218°
2026-05-06 18:34 24.34979 120.21832 31016 ft 485 kts 218°
2026-05-06 18:35 24.32230 120.19696 31453 ft 484 kts 218°
2026-05-06 18:35 24.29522 120.17593 31911 ft 483 kts 218°
2026-05-06 18:35 24.26782 120.15468 32350 ft 482 kts 218°
2026-05-06 18:35 24.24051 120.13350 32789 ft 480 kts 218°
2026-05-06 18:36 24.21327 120.11240 33204 ft 479 kts 218°
2026-05-06 18:36 24.20526 120.10619 33331 ft 479 kts 218°
2026-05-06 18:37 24.18301 120.08896 33640 ft 478 kts 218°
2026-05-06 18:37 24.15586 120.06795 34021 ft 478 kts 218°
2026-05-06 18:37 24.12909 120.04728 34344 ft 477 kts 218°
2026-05-06 18:37 24.10202 120.02638 34654 ft 476 kts 218°
2026-05-06 18:38 24.07496 120.00549 34974 ft 475 kts 219°
2026-05-06 18:38 24.04798 119.98468 35279 ft 474 kts 219°
2026-05-06 18:38 24.02107 119.96390 35574 ft 473 kts 219°
2026-05-06 18:38 23.99417 119.94313 35836 ft 474 kts 219°
2026-05-06 18:39 23.94037 119.90148 35942 ft 475 kts 219°
2026-05-06 18:40 23.85988 119.83919 35954 ft 475 kts 219°
2026-05-06 18:40 23.80599 119.79754 35955 ft 474 kts 219°
2026-05-06 18:41 23.75210 119.75594 35959 ft 474 kts 219°
2026-05-06 18:41 23.69815 119.71433 35966 ft 475 kts 219°
2026-05-06 18:42 23.64413 119.67272 35960 ft 476 kts 219°
2026-05-06 18:42 23.59157 119.63001 35971 ft 472 kts 226°
2026-05-06 18:43 23.55103 119.57504 35968 ft 464 kts 241°
2026-05-06 18:43 23.51883 119.51420 35968 ft 463 kts 243°
2026-05-06 18:44 23.48620 119.45352 35963 ft 465 kts 242°
2026-05-06 18:44 23.45227 119.39341 35958 ft 466 kts 241°
2026-05-06 18:45 23.41791 119.33364 35950 ft 466 kts 240°
2026-05-06 18:45 23.38371 119.27431 35960 ft 466 kts 241°
2026-05-06 18:46 23.34928 119.21456 35951 ft 466 kts 241°
2026-05-06 18:46 23.31585 119.15657 35954 ft 466 kts 241°
2026-05-06 18:47 23.28137 119.09681 35950 ft 467 kts 240°
2026-05-06 18:47 23.24681 119.03701 35955 ft 467 kts 240°
2026-05-06 18:48 23.21246 118.97764 35956 ft 467 kts 240°
2026-05-06 18:48 23.17783 118.91785 35947 ft 467 kts 240°
2026-05-06 18:49 23.14321 118.85815 35952 ft 467 kts 240°
2026-05-06 18:49 23.10841 118.79847 35951 ft 467 kts 240°
2026-05-06 18:50 23.07363 118.73885 35952 ft 468 kts 240°
2026-05-06 18:50 23.04069 118.68228 35951 ft 468 kts 240°
2026-05-06 18:51 23.00592 118.62261 35953 ft 467 kts 240°
2026-05-06 18:51 22.97288 118.56209 35952 ft 464 kts 248°
2026-05-06 18:52 22.95537 118.49570 35949 ft 457 kts 266°
2026-05-06 18:52 22.95664 118.42707 35953 ft 455 kts 276°
2026-05-06 18:53 22.96221 118.35905 35947 ft 456 kts 276°
2026-05-06 18:53 22.96649 118.29040 35951 ft 456 kts 274°
2026-05-06 18:54 22.96975 118.22170 35955 ft 456 kts 274°
2026-05-06 18:54 22.97273 118.15295 35955 ft 456 kts 274°
2026-05-06 18:55 22.97569 118.08420 35954 ft 456 kts 274°
2026-05-06 18:55 22.97866 118.01544 35954 ft 456 kts 274°
2026-05-06 18:56 22.98158 117.94712 35952 ft 456 kts 274°
2026-05-06 18:56 22.98449 117.87829 35949 ft 457 kts 274°
2026-05-06 18:57 22.98738 117.80939 35953 ft 457 kts 274°
2026-05-06 18:57 22.99016 117.74232 35953 ft 457 kts 274°
2026-05-06 18:58 22.99299 117.67341 35956 ft 457 kts 274°
2026-05-06 18:58 22.99577 117.60494 35949 ft 457 kts 274°
2026-05-06 18:59 22.99842 117.53598 35955 ft 457 kts 274°
2026-05-06 18:59 22.99901 117.46695 35958 ft 458 kts 270°
2026-05-06 19:00 22.99602 117.39785 35957 ft 459 kts 268°
2026-05-06 19:00 22.99271 117.32876 35959 ft 458 kts 269°
2026-05-06 19:01 22.98976 117.26014 36035 ft 459 kts 269°
2026-05-06 19:01 22.98692 117.19119 36045 ft 458 kts 269°
2026-05-06 19:02 22.98407 117.12215 36047 ft 457 kts 269°
2026-05-06 19:02 22.98119 117.05325 36047 ft 457 kts 269°
2026-05-06 19:03 22.97827 116.98432 36046 ft 457 kts 269°
2026-05-06 19:03 22.97534 116.91584 36047 ft 457 kts 269°
2026-05-06 19:04 22.97237 116.84695 36047 ft 457 kts 269°
2026-05-06 19:04 22.96937 116.77821 36047 ft 456 kts 268°
2026-05-06 19:05 22.96634 116.70949 36046 ft 456 kts 268°
2026-05-06 19:05 22.96328 116.64076 36047 ft 456 kts 268°
2026-05-06 19:06 22.96022 116.57266 36050 ft 456 kts 268°
2026-05-06 19:06 22.95710 116.50404 36050 ft 455 kts 268°
2026-05-06 19:07 22.95383 116.43551 36050 ft 455 kts 268°
2026-05-06 19:07 22.95026 116.36769 36053 ft 455 kts 266°
2026-05-06 19:08 22.94403 116.29938 36051 ft 455 kts 265°
2026-05-06 19:08 22.93686 116.23118 36045 ft 455 kts 265°
2026-05-06 19:09 22.92980 116.16344 36050 ft 455 kts 265°
2026-05-06 19:09 22.92279 116.09524 36052 ft 455 kts 265°
2026-05-06 19:10 22.91580 116.02708 36052 ft 455 kts 265°
2026-05-06 19:10 22.90866 115.95895 36055 ft 455 kts 265°
2026-05-06 19:11 22.90150 115.89082 36053 ft 454 kts 265°
2026-05-06 19:11 22.89462 115.82320 36051 ft 454 kts 265°
2026-05-06 19:12 22.88782 115.75506 36053 ft 454 kts 265°
2026-05-06 19:12 22.88102 115.68719 36051 ft 454 kts 265°
2026-05-06 19:13 22.87415 115.61908 36053 ft 454 kts 265°
2026-05-06 19:13 22.86726 115.55101 36055 ft 454 kts 265°
2026-05-06 19:14 22.86034 115.48296 36055 ft 454 kts 265°
2026-05-06 19:14 22.85338 115.41488 36045 ft 454 kts 265°
2026-05-06 19:15 22.84644 115.34724 36056 ft 454 kts 265°
2026-05-06 19:15 22.83943 115.27919 36057 ft 454 kts 265°
2026-05-06 19:16 22.83238 115.21111 36055 ft 454 kts 265°
2026-05-06 19:16 22.82534 115.14328 36054 ft 454 kts 265°
2026-05-06 19:17 22.81824 115.07526 36055 ft 454 kts 265°
2026-05-06 19:17 22.81117 115.00777 36054 ft 454 kts 265°
2026-05-06 19:18 22.80389 114.93994 36054 ft 452 kts 265°
2026-05-06 19:18 22.79661 114.87223 36053 ft 452 kts 265°
2026-05-06 19:19 22.78940 114.80463 36050 ft 451 kts 265°
2026-05-06 19:19 22.78226 114.73708 36047 ft 451 kts 265°
2026-05-06 19:20 22.77535 114.66960 36051 ft 450 kts 266°
2026-05-06 19:20 22.76854 114.60260 36044 ft 450 kts 266°
2026-05-06 19:21 22.76167 114.53523 36046 ft 450 kts 265°
2026-05-06 19:21 22.75480 114.46789 36051 ft 449 kts 266°
2026-05-06 19:22 22.74797 114.40066 36049 ft 449 kts 266°
2026-05-06 19:22 22.74113 114.33351 36047 ft 447 kts 266°
2026-05-06 19:23 22.73433 114.26700 36047 ft 448 kts 266°
2026-05-06 19:23 22.73010 114.19986 36046 ft 446 kts 273°
2026-05-06 19:24 22.73885 114.13381 36048 ft 443 kts 287°
2026-05-06 19:24 22.76282 114.07239 35927 ft 445 kts 300°
2026-05-06 19:24 22.77980 114.04438 35558 ft 446 kts 306°
2026-05-06 19:25 22.79985 114.01866 35068 ft 448 kts 312°
2026-05-06 19:25 22.82240 113.99594 34519 ft 449 kts 318°
2026-05-06 19:25 22.84772 113.97594 33987 ft 453 kts 325°
2026-05-06 19:25 22.87535 113.95918 33381 ft 458 kts 331°
2026-05-06 19:26 22.90488 113.94578 32814 ft 463 kts 337°
2026-05-06 19:26 22.93605 113.93600 32238 ft 470 kts 344°
2026-05-06 19:26 22.96844 113.93004 31663 ft 475 kts 349°
2026-05-06 19:26 23.00152 113.92645 31075 ft 480 kts 352°
2026-05-06 19:27 23.03493 113.92375 30491 ft 483 kts 352°
2026-05-06 19:27 23.06822 113.91979 29848 ft 480 kts 347°
2026-05-06 19:27 23.10029 113.91095 29134 ft 472 kts 337°
2026-05-06 19:27 23.12969 113.89602 28488 ft 463 kts 326°
2026-05-06 19:28 23.15523 113.87597 27866 ft 456 kts 316°
2026-05-06 19:28 23.17716 113.85143 27263 ft 450 kts 307°
2026-05-06 19:28 23.19495 113.82362 26668 ft 445 kts 298°
2026-05-06 19:28 23.20835 113.79350 26083 ft 441 kts 290°
2026-05-06 19:29 23.21722 113.76176 25498 ft 437 kts 281°
2026-05-06 19:29 23.22159 113.72924 24922 ft 434 kts 275°
2026-05-06 19:29 23.22321 113.69651 24337 ft 432 kts 271°
2026-05-06 19:29 23.22385 113.66397 23772 ft 429 kts 271°
2026-05-06 19:30 23.22435 113.63186 23097 ft 426 kts 271°
2026-05-06 19:30 23.22502 113.59979 22424 ft 422 kts 271°
2026-05-06 19:30 23.22589 113.56803 21796 ft 418 kts 271°
2026-05-06 19:30 23.22690 113.53700 21196 ft 415 kts 271°
2026-05-06 19:31 23.22799 113.50582 20738 ft 411 kts 271°
2026-05-06 19:31 23.22879 113.47505 20455 ft 409 kts 269°
2026-05-06 19:31 23.21772 113.41779 20066 ft 374 kts 244°
2026-05-06 19:32 23.20312 113.39486 19594 ft 367 kts 228°
2026-05-06 19:32 23.18365 113.37737 19119 ft 363 kts 214°
2026-05-06 19:32 23.16094 113.36578 18646 ft 359 kts 201°
2026-05-06 19:32 23.13702 113.35844 18176 ft 355 kts 196°
2026-05-06 19:33 23.11311 113.35254 17634 ft 350 kts 195°
2026-05-06 19:33 23.08974 113.34696 17116 ft 345 kts 195°
2026-05-06 19:33 23.07430 113.34320 16768 ft 342 kts 195°
2026-05-06 19:33 23.05127 113.33742 16245 ft 337 kts 196°
2026-05-06 19:34 23.02129 113.32966 15577 ft 332 kts 196°
2026-05-06 19:34 22.99893 113.32376 15091 ft 329 kts 196°
2026-05-06 19:34 22.97691 113.31788 14610 ft 320 kts 197°
2026-05-06 19:34 22.95603 113.31229 14135 ft 299 kts 197°
2026-05-06 19:35 22.94303 113.30856 13827 ft 285 kts 200°
2026-05-06 19:35 22.92613 113.29924 13275 ft 265 kts 222°
2026-05-06 19:35 22.91564 113.28380 12751 ft 250 kts 250°
2026-05-06 19:35 22.91358 113.26553 12234 ft 243 kts 274°
2026-05-06 19:36 22.91664 113.24756 11735 ft 242 kts 281°
2026-05-06 19:36 22.92206 113.22420 11024 ft 240 kts 284°
2026-05-06 19:36 22.92931 113.20795 10483 ft 242 kts 304°
2026-05-06 19:36 22.94250 113.19664 9950 ft 247 kts 333°
2026-05-06 19:37 22.95387 113.19382 9574 ft 252 kts 354°
2026-05-06 19:37 22.97106 113.19595 9074 ft 251 kts
2026-05-06 19:37 22.98777 113.20029 8705 ft 243 kts 11°
2026-05-06 19:37 23.00393 113.20477 8280 ft 238 kts 11°
2026-05-06 19:38 23.01993 113.20917 7802 ft 237 kts 11°
2026-05-06 19:38 23.03590 113.21354 7331 ft 236 kts 11°
2026-05-06 19:38 23.05183 113.21787 6861 ft 236 kts 12°
2026-05-06 19:38 23.06720 113.22359 6397 ft 232 kts 17°
2026-05-06 19:39 23.08243 113.22805 6012 ft 227 kts 11°
2026-05-06 19:39 23.09766 113.23175 5640 ft 223 kts 11°
2026-05-06 19:39 23.11269 113.23542 5265 ft 220 kts 11°
2026-05-06 19:39 23.12750 113.23872 5014 ft 216 kts
2026-05-06 19:40 23.14246 113.24123 4774 ft 218 kts 12°
2026-05-06 19:40 23.15715 113.24528 4526 ft 217 kts 14°
2026-05-06 19:40 23.17177 113.24947 4263 ft 217 kts 14°
2026-05-06 19:40 23.18634 113.25360 4044 ft 216 kts 14°
2026-05-06 19:41 23.20092 113.25760 3794 ft 216 kts 13°
2026-05-06 19:41 23.21517 113.26232 3547 ft 216 kts 18°
2026-05-06 19:41 23.22940 113.26673 3320 ft 216 kts 14°
2026-05-06 19:41 23.24403 113.27059 3078 ft 216 kts 13°
2026-05-06 19:42 23.25855 113.27455 2832 ft 215 kts 18°
2026-05-06 19:42 23.27309 113.27982 2223 ft 226 kts 18°
2026-05-06 19:42 23.28845 113.28451 1661 ft 230 kts 18°
2026-05-06 19:42 23.30326 113.28910 1381 ft 209 kts 17°
2026-05-06 19:43 23.31646 113.29318 1078 ft 184 kts 17°
2026-05-06 19:43 23.32822 113.29683 876 ft 169 kts 15°
2026-05-06 19:43 23.33954 113.29950 673 ft 165 kts 14°
2026-05-06 19:43 23.35045 113.30254 466 ft 164 kts 14°
2026-05-06 19:44 23.36140 113.30544 250 ft 160 kts 15°
2026-05-06 19:44 23.37207 113.30836 68 ft 154 kts 14°
2026-05-06 19:44 23.38106 113.31082 59 ft 114 kts 13°
2026-05-06 19:44 23.38777 113.31262 59 ft 84 kts 14°
2026-05-06 19:45 23.39142 113.31361 56 ft 43 kts 14°
2026-05-06 19:45 23.39390 113.31485 56 ft 31 kts 38°
2026-05-06 19:45 23.39512 113.31601 57 ft 21 kts 41°
2026-05-06 19:45 23.39625 113.31689 62 ft 19 kts 25°
2026-05-06 19:46 23.39745 113.31726 62 ft 17 kts 13°
2026-05-06 19:46 23.39855 113.31754 58 ft 15 kts 13°
2026-05-06 19:46 23.39943 113.31778 57 ft 13 kts 14°
2026-05-06 19:46 23.40046 113.31805 58 ft 17 kts 14°
2026-05-06 19:47 23.40153 113.31835 61 ft 14 kts 14°
2026-05-06 19:47 23.40214 113.31883 58 ft 11 kts 66°
2026-05-06 19:47 23.40206 113.31959 61 ft 10 kts 104°
2026-05-06 19:47 23.40191 113.32024 60 ft 8 kts 104°
2026-05-06 19:48 23.40178 113.32082 64 ft 8 kts 102°
2026-05-06 19:48 23.40196 113.32139 58 ft 8 kts 41°
2026-05-06 19:48 23.40221 113.32167 56 ft 2 kts 75°
2026-05-06 19:48 23.40218 113.32198 57 ft 5 kts 102°
2026-05-06 19:49 23.40211 113.32228 63 ft 3 kts 104°
2026-05-06 19:49 23.40207 113.32247 64 ft 0 kts 104°
2026-05-06 19:49 23.40207 113.32248 64 ft 0 kts 104°